1514239200.42,5711,8.5,73658.0,-4.81,-5.89,-5.97,0,*60
1514239201.63,5712,8.5,73656.0,-4.81,-6.01,-5.97,0,*60
1514239202.85,5713,8.5,73660.5,-4.81,-5.97,-5.97,0,*6D
1514239204.06,5714,8.5,73660.0,-4.81,-5.97,-5.97,0,*6A
1514239205.27,5715,8.5,73654.8,-4.81,-5.97,-5.97,0,*6B
1514239206.48,5716,8.5,73652.0,-4.81,-5.97,-5.97,0,*68
1514239207.72,5717,8.5,73652.0,-4.81,-5.97,-5.89,0,*66
1514239208.97,5718,8.5,73658.5,-4.83,-5.93,-5.93,0,*64
1514239210.18,5719,8.5,73650.3,-4.83,-5.93,-6.01,0,*6D
1514239211.45,5720,8.5,73642.0,-4.81,-5.89,-5.89,0,*6D
1514239212.69,5721,8.5,73642.3,-4.81,-5.89,-5.97,0,*63
1514239213.88,5722,8.5,73642.3,-4.83,-6.01,-6.01,0,*6D
1514239215.07,5723,8.5,73632.0,-4.83,-6.01,-6.01,0,*6C
1514239216.25,5724,8.5,73636.3,-4.83,-6.01,-6.01,0,*6B
1514239217.44,5725,8.5,73642.0,-4.83,-6.01,-6.01,0,*6A
1514239218.65,5726,8.5,73634.5,-4.81,-5.97,-5.97,0,*6B
1514239219.86,5727,8.5,73638.5,-4.81,-5.97,-5.97,0,*6A
1514239221.08,5728,8.5,73636.0,-4.81,-5.97,-5.97,0,*65
1514239222.29,5729,8.5,73634.0,-4.81,-5.97,-5.97,0,*64
1514239223.5,5730,8.5,73644.0,-4.81,-5.97,-5.97,0,*6C
1514239224.72,5731,8.5,73642.8,-4.83,-6.01,-5.93,0,*67
1514239225.9,5732,8.5,73642.5,-4.83,-6.05,-6.01,0,*68
1514239227.14,5733,8.5,73648.3,-4.85,-6.01,-5.93,0,*63
1514239228.33,5734,8.5,73652.0,-4.83,-6.05,-6.01,0,*6E
1514239229.51,5735,8.5,73644.8,-4.83,-6.05,-6.01,0,*6F
1514239230.73,5736,8.5,73652.0,-4.83,-6.01,-5.93,0,*60
1514239231.92,5737,8.5,73648.3,-4.83,-6.01,-6.01,0,*69
1514239233.14,5738,8.5,73648.3,-4.83,-6.01,-5.93,0,*6E
1514239234.35,5739,8.5,73650.3,-4.85,-6.01,-6.01,0,*61
1514239235.54,5740,8.5,73646.5,-4.83,-6.01,-6.01,0,*69
1514239236.78,5741,8.5,73646.0,-4.81,-5.97,-5.89,0,*65
1514239237.97,5742,8.5,73636.5,-4.83,-6.01,-6.05,0,*6F
1514239239.18,5743,8.5,73646.3,-4.85,-6.05,-6.01,0,*68
1514239240.39,5744,8.5,73654.8,-4.83,-5.93,-6.05,0,*61
1514239241.58,5745,8.5,73654.0,-4.83,-6.01,-6.05,0,*68
1514239242.77,5746,8.5,73644.3,-4.83,-6.01,-6.01,0,*6F
1514239243.98,5747,8.5,73638.8,-4.85,-6.01,-6.01,0,*68
1514239245.17,5748,8.5,73644.3,-4.83,-6.05,-6.01,0,*65
1514239246.35,5749,8.5,73652.0,-4.83,-6.05,-6.05,0,*60
1514239247.57,5750,8.5,73648.3,-4.85,-6.13,-6.05,0,*69
1514239248.78,5751,8.5,73640.8,-4.85,-6.05,-6.01,0,*6B
1514239250.02,5752,8.5,73644.5,-4.85,-6.01,-5.93,0,*64
1514239251.2,5753,8.5,73644.5,-4.83,-6.05,-6.05,0,*6B
1514239252.41,5754,8.5,73646.3,-4.85,-6.05,-6.01,0,*6E
1514239253.6,5755,8.5,73642.5,-4.83,-6.05,-6.01,0,*69
1514239254.79,5756,8.5,73642.8,-4.83,-6.01,-6.01,0,*6E
1514239255.98,5757,8.5,73646.0,-4.83,-6.01,-6.01,0,*6F
1514239257.22,5758,8.5,73646.3,-4.85,-6.01,-5.93,0,*6E
1514239258.43,5759,8.5,73644.8,-4.85,-6.01,-6.05,0,*63
1514239259.65,5760,8.5,73646.3,-4.85,-6.01,-6.01,0,*6D
1514239260.86,5761,8.5,73644.8,-4.85,-6.05,-6.05,0,*6C
1514239262.07,5762,8.5,73638.3,-4.85,-6.01,-6.05,0,*6B
1514239263.29,5763,8.5,73644.3,-4.85,-6.01,-6.01,0,*6E
1514239264.47,5764,8.5,73646.5,-4.83,-6.01,-6.01,0,*6F
1514239265.68,5765,8.5,73656.8,-4.85,-6.05,-6.01,0,*6C
1514239266.93,5766,8.5,73644.3,-4.85,-6.01,-5.93,0,*63
1514239268.14,5767,8.5,73632.8,-4.85,-6.01,-6.01,0,*6A
1514239269.36,5768,8.5,73632.3,-4.85,-6.01,-6.01,0,*65
1514239270.63,5769,8.5,73632.8,-4.85,-5.93,-5.93,0,*64
1514239271.85,5770,8.5,73634.0,-4.83,-5.93,-6.01,0,*62
1514239273.12,5771,8.5,73636.5,-4.85,-5.93,-5.93,0,*6D
1514239274.39,5772,8.5,73628.3,-4.85,-5.93,-5.93,0,*6E
1514239275.58,5773,8.5,73636.8,-4.83,-6.01,-6.01,0,*69
1514239276.82,5774,8.5,73638.3,-4.85,-5.93,-6.01,0,*60
1514239278.07,5775,8.5,73640.5,-4.85,-6.01,-5.93,0,*61
1514239279.31,5776,8.5,73646.0,-4.85,-5.93,-6.01,0,*62
1514239280.58,5777,8.5,73654.3,-4.85,-5.93,-5.93,0,*6B
1514239281.82,5778,8.5,73652.5,-4.85,-5.93,-6.01,0,*6C
1514239283.04,5779,8.5,73650.0,-4.87,-5.97,-5.93,0,*63
1514239284.31,5780,8.5,73642.0,-4.85,-5.93,-5.93,0,*63
1514239285.56,5781,8.5,73654.5,-4.85,-5.93,-6.01,0,*6A
1514239286.74,5782,8.5,73648.3,-4.83,-6.01,-6.01,0,*67
1514239288.01,5783,8.5,73648.0,-4.85,-5.89,-5.93,0,*6B
1514239289.29,5784,8.5,73654.5,-4.85,-5.93,-5.89,0,*6C
1514239290.53,5785,8.5,73646.5,-4.85,-6.01,-5.93,0,*6E
1514239291.8,5786,8.5,73644.8,-4.85,-5.93,-5.93,0,*65
1514239293.05,5787,8.5,73640.8,-4.85,-5.93,-6.01,0,*6C
1514239294.29,5788,8.5,73646.0,-4.85,-5.93,-6.01,0,*63
1514239295.56,5789,8.5,73648.0,-4.85,-5.93,-5.93,0,*6A
1514239296.78,5790,8.5,73630.0,-4.83,-6.01,-5.93,0,*6C
1514239298.05,5791,8.5,73626.8,-4.85,-5.93,-5.81,0,*60
1514239299.32,5792,8.5,73624.5,-4.85,-5.93,-5.93,0,*60
1514239300.59,5793,8.5,73636.0,-4.85,-5.93,-5.93,0,*61
1514239301.87,5794,8.5,73642.0,-4.85,-5.93,-5.93,0,*66
1514239303.14,5795,8.5,73646.8,-4.85,-5.93,-5.93,0,*67
1514239304.41,5796,8.5,73648.8,-4.85,-5.93,-5.89,0,*6F
1514239305.68,5797,8.5,73648.3,-4.85,-5.93,-5.93,0,*65
1514239306.96,5798,8.5,73650.0,-4.85,-5.93,-5.89,0,*61
1514239308.23,5799,8.5,73656.8,-4.85,-5.93,-5.93,0,*6B
1514239309.5,5800,8.5,73644.5,-4.85,-5.93,-5.93,0,*64
1514239310.69,5801,8.5,73642.3,-4.87,-5.97,-6.05,0,*6F
1514239311.96,5802,8.5,73646.8,-4.85,-5.93,-5.89,0,*6D
1514239313.24,5803,8.5,73632.0,-4.85,-5.93,-5.89,0,*6C
1514239314.51,5804,8.5,73634.0,-4.85,-5.93,-5.93,0,*60
1514239315.76,5805,8.5,73642.3,-4.85,-6.01,-5.89,0,*62
1514239317.0,5806,8.5,73650.8,-4.85,-6.01,-5.89,0,*61
1514239318.28,5807,8.5,73648.8,-4.85,-5.93,-5.89,0,*68
1514239319.55,5808,8.5,73646.5,-4.85,-5.93,-5.89,0,*67
1514239320.8,5809,8.5,73640.3,-4.87,-5.93,-5.85,0,*68
1514239322.05,5810,8.5,73656.3,-4.87,-5.93,-5.93,0,*67
1514239323.26,5811,8.5,73652.3,-4.87,-6.05,-5.93,0,*6A
1514239324.53,5812,8.5,73644.8,-4.85,-5.93,-5.93,0,*67
1514239325.77,5813,8.5,73652.8,-4.85,-5.89,-6.01,0,*65
1514239327.02,5814,8.5,73654.0,-4.83,-5.93,-5.93,0,*67
1514239328.28,5815,8.5,73654.8,-4.85,-5.89,-5.93,0,*6B
1514239329.55,5816,8.5,73650.0,-4.85,-5.89,-5.93,0,*68
1514239330.8,5817,8.5,73640.0,-4.83,-5.93,-5.93,0,*64
1514239332.07,5818,8.5,73640.3,-4.85,-5.93,-5.81,0,*6E
1514239333.34,5819,8.5,73644.0,-4.85,-5.89,-5.89,0,*6C
1514239334.59,5820,8.5,73650.3,-4.87,-5.93,-5.93,0,*64
1514239335.86,5821,8.5,73656.0,-4.85,-5.93,-5.89,0,*6C
1514239337.11,5822,8.5,73656.0,-4.83,-5.93,-5.89,0,*69
1514239338.38,5823,8.5,73650.3,-4.85,-5.89,-5.89,0,*65
1514239339.65,5824,8.5,73652.5,-4.85,-5.93,-5.81,0,*61
1514239340.9,5825,8.5,73644.0,-4.83,-5.89,-5.89,0,*65
1514239342.17,5826,8.5,73644.5,-4.85,-5.93,-5.93,0,*60
1514239343.44,5827,8.5,73652.5,-4.85,-5.89,-5.81,0,*69
1514239344.68,5828,8.5,73648.5,-4.83,-5.89,-5.89,0,*68
1514239345.95,5829,8.5,73648.5,-4.85,-5.89,-5.93,0,*64
1514239347.22,5830,8.5,73648.8,-4.85,-5.89,-5.93,0,*6C
1514239348.47,5831,8.5,73644.0,-4.83,-5.93,-5.81,0,*63
1514239349.74,5832,8.5,73652.8,-4.85,-5.89,-5.89,0,*65
1514239351.01,5833,8.5,73652.8,-4.85,-5.89,-5.89,0,*64
1514239352.25,5834,8.5,73644.8,-4.83,-5.81,-5.81,0,*65
1514239353.52,5835,8.5,73642.8,-4.85,-5.93,-5.81,0,*61
1514239354.79,5836,8.5,73640.8,-4.85,-5.89,-5.89,0,*61
1514239356.07,5837,8.5,73650.3,-4.85,-5.81,-5.89,0,*68
1514239357.34,5838,8.5,73650.8,-4.85,-5.89,-5.89,0,*6F
1514239358.61,5839,8.5,73648.8,-4.85,-5.89,-5.89,0,*6E
1514239359.88,5840,8.5,73646.0,-4.85,-5.89,-5.81,0,*68
1514239361.12,5841,8.5,73640.5,-4.83,-5.81,-5.81,0,*67
1514239362.39,5842,8.5,73650.5,-4.85,-5.89,-5.81,0,*6A
1514239363.63,5843,8.5,73654.0,-4.83,-5.89,-5.81,0,*6D
1514239364.9,5844,8.5,73646.5,-4.85,-5.81,-5.89,0,*6C
1514239366.17,5845,8.5,73650.8,-4.85,-5.81,-5.89,0,*6D
1514239367.45,5846,8.5,73652.0,-4.85,-5.93,-5.81,0,*65
1514239368.72,5847,8.5,73636.0,-4.85,-5.81,-5.81,0,*67
1514239369.98,5848,8.5,73638.0,-4.85,-5.89,-5.81,0,*60
1514239371.25,5849,8.5,73634.0,-4.85,-5.81,-5.81,0,*69
1514239372.52,5850,8.5,73640.5,-4.85,-5.81,-5.81,0,*61
1514239373.79,5851,8.5,73640.3,-4.85,-5.89,-5.77,0,*61
1514239375.03,5852,8.5,73638.8,-4.83,-5.81,-5.77,0,*6C
1514239376.3,5853,8.5,73636.8,-4.85,-5.77,-5.81,0,*6B
1514239377.54,5854,8.5,73634.5,-4.83,-5.77,-5.81,0,*6A
1514239378.8,5855,8.5,73632.8,-4.85,-5.77,-5.81,0,*6D
1514239380.07,5856,8.5,73638.3,-4.85,-5.89,-5.81,0,*6F
1514239381.31,5857,8.5,73646.3,-4.83,-5.77,-5.77,0,*60
1514239382.58,5858,8.5,73638.8,-4.85,-5.69,-5.77,0,*66
1514239383.82,5859,8.5,73636.5,-4.83,-5.77,-5.69,0,*61
1514239385.09,5860,8.5,73640.0,-4.85,-5.77,-5.81,0,*6B
1514239386.35,5861,8.5,73644.8,-4.85,-5.77,-5.77,0,*63
1514239387.62,5862,8.5,73638.8,-4.85,-5.81,-5.77,0,*69
1514239388.86,5863,8.5,73642.0,-4.83,-5.77,-5.77,0,*67
1514239390.1,5864,8.5,73638.5,-4.83,-5.77,-5.69,0,*6F
1514239391.36,5865,8.5,73634.8,-4.85,-5.81,-5.77,0,*6E
1514239392.63,5866,8.5,73638.8,-4.85,-5.77,-5.77,0,*64
1514239393.87,5867,8.5,73640.0,-4.83,-5.77,-5.77,0,*63
1514239395.11,5868,8.5,73646.3,-4.83,-5.77,-5.69,0,*63
1514239396.35,5869,8.5,73648.8,-4.83,-5.77,-5.77,0,*6D
1514239397.61,5870,8.5,73650.5,-4.85,-5.77,-5.77,0,*63
1514239398.85,5871,8.5,73644.8,-4.83,-5.81,-5.81,0,*64
1514239400.1,5872,8.5,73650.8,-4.83,-5.81,-5.81,0,*67
1514239401.36,5873,8.5,73654.0,-4.85,-5.77,-5.81,0,*69
1514239402.61,5874,8.5,73652.3,-4.83,-5.77,-5.81,0,*68
1514239403.85,5875,8.5,73654.0,-4.83,-5.77,-5.81,0,*69
1514239405.09,5876,8.5,73650.5,-4.83,-5.81,-5.77,0,*6A
1514239406.32,5877,8.5,73650.0,-4.83,-5.81,-5.77,0,*6B
1514239407.56,5878,8.5,73644.0,-4.83,-5.81,-5.77,0,*64
1514239408.81,5879,8.5,73648.8,-4.83,-5.77,-5.69,0,*63
1514239410.07,5880,8.5,73656.8,-4.85,-5.81,-5.77,0,*65
1514239411.31,5881,8.5,73658.0,-4.83,-5.81,-5.77,0,*62
1514239412.55,5882,8.5,73654.0,-4.83,-5.81,-5.69,0,*6E
1514239413.8,5883,8.5,73646.0,-4.83,-5.81,-5.81,0,*69
1514239415.04,5884,8.5,73654.5,-4.83,-5.81,-5.81,0,*6E
1514239416.28,5885,8.5,73658.5,-4.83,-5.81,-5.77,0,*66
1514239417.52,5886,8.5,73658.0,-4.83,-5.81,-5.77,0,*65
1514239418.76,5887,8.5,73650.8,-4.83,-5.81,-5.81,0,*6D
1514239420.0,5888,8.5,73646.3,-4.83,-5.81,-5.77,0,*6B
1514239421.24,5889,8.5,73650.5,-4.83,-5.89,-5.77,0,*62
1514239422.51,5890,8.5,73652.3,-4.85,-5.89,-5.69,0,*63
1514239423.77,5891,8.5,73666.0,-4.85,-5.89,-5.81,0,*64
1514239425.02,5892,8.5,73654.5,-4.83,-5.81,-5.81,0,*69
1514239426.26,5893,8.5,73650.5,-4.83,-5.81,-5.89,0,*60
1514239427.5,5894,8.5,73658.0,-4.83,-5.81,-5.81,0,*6F
1514239428.77,5895,8.5,73658.0,-4.85,-5.81,-5.77,0,*61
1514239430.01,5896,8.5,73654.8,-4.83,-5.89,-5.81,0,*65
1514239431.26,5897,8.5,73658.8,-4.83,-5.81,-5.89,0,*64
1514239432.52,5898,8.5,73658.0,-4.81,-5.77,-5.77,0,*61
1514239433.78,5899,8.5,73654.0,-4.81,-5.77,-5.77,0,*60
1514239435.05,5900,8.5,73644.5,-4.81,-5.85,-5.77,0,*6C
1514239436.31,5901,8.5,73652.5,-4.81,-5.77,-5.77,0,*60
1514239437.57,5902,8.5,73654.5,-4.81,-5.77,-5.73,0,*67
1514239438.83,5903,8.5,73640.3,-4.81,-5.73,-5.77,0,*66
1514239440.09,5904,8.5,73642.8,-4.81,-5.77,-5.77,0,*65
1514239441.35,5905,8.5,73648.8,-4.81,-5.77,-5.77,0,*64
1514239442.61,5906,8.5,73646.8,-4.81,-5.77,-5.77,0,*67
1514239443.88,5907,8.5,73656.0,-4.81,-5.77,-5.85,0,*6B
1514239445.13,5908,8.5,73666.3,-4.83,-5.89,-5.81,0,*63
1514239446.37,5909,8.5,73666.3,-4.83,-5.81,-5.89,0,*62
1514239447.64,5910,8.5,73648.8,-4.81,-5.85,-5.77,0,*6D
1514239448.9,5911,8.5,73650.5,-4.81,-5.85,-5.77,0,*6C
1514239450.17,5912,8.5,73656.5,-4.81,-5.77,-5.77,0,*62
1514239451.41,5913,8.5,73654.8,-4.83,-5.81,-5.81,0,*61
1514239452.65,5914,8.5,73656.0,-4.83,-5.89,-5.81,0,*6E
1514239453.89,5915,8.5,73658.5,-4.83,-5.81,-5.81,0,*67
1514239455.14,5916,8.5,73662.8,-4.83,-5.81,-5.81,0,*64
1514239456.38,5917,8.5,73660.0,-4.83,-5.81,-5.89,0,*6D
1514239457.64,5918,8.5,73656.5,-4.81,-5.77,-5.77,0,*68
1514239458.88,5919,8.5,73658.5,-4.79,-5.77,-5.77,0,*6E
1514239460.15,5920,8.5,73656.0,-4.81,-5.77,-5.85,0,*6E
1514239461.41,5921,8.5,73658.8,-4.81,-5.85,-5.77,0,*6F
1514239462.66,5922,8.5,73664.3,-4.83,-5.89,-5.89,0,*63
1514239463.9,5923,8.5,73658.5,-4.83,-5.89,-5.89,0,*62
1514239465.18,5924,8.5,73666.5,-4.81,-5.85,-5.85,0,*67
1514239466.45,5925,8.5,73662.0,-4.81,-5.85,-5.85,0,*66
1514239467.72,5926,8.5,73666.0,-4.81,-5.85,-5.85,0,*65
1514239469.0,5927,8.5,73656.5,-4.81,-5.85,-5.85,0,*64
1514239470.24,5928,8.5,73666.8,-4.79,-5.85,-5.85,0,*6C
1514239471.51,5929,8.5,73658.3,-4.81,-5.77,-5.77,0,*6A
1514239472.78,5930,8.5,73658.8,-4.81,-5.85,-5.85,0,*62
1514239474.02,5931,8.5,73658.8,-4.83,-5.89,-5.81,0,*69
1514239475.26,5932,8.5,73662.5,-4.83,-5.89,-5.89,0,*62
1514239476.51,5933,8.5,73652.5,-4.83,-5.89,-5.89,0,*63
1514239477.78,5934,8.5,73654.3,-4.81,-5.85,-5.85,0,*66
1514239479.06,5935,8.5,73660.5,-4.81,-5.85,-5.85,0,*67
1514239480.33,5936,8.5,73660.3,-4.81,-5.85,-5.85,0,*64
1514239481.6,5937,8.5,73668.5,-4.81,-5.77,-5.85,0,*68
1514239482.87,5938,8.5,73662.0,-4.81,-5.85,-5.85,0,*6A
1514239484.12,5939,8.5,73662.5,-4.83,-5.81,-5.89,0,*61
1514239485.39,5940,8.5,73658.3,-4.85,-5.89,-5.89,0,*61
1514239486.63,5941,8.5,73664.5,-4.83,-5.89,-5.89,0,*66
1514239487.88,5942,8.5,73660.5,-4.83,-5.89,-5.89,0,*65
1514239489.15,5943,8.5,73666.8,-4.81,-5.89,-5.85,0,*6A
1514239490.39,5944,8.5,73670.8,-4.83,-5.89,-5.89,0,*63
1514239491.63,5945,8.5,73662.3,-4.83,-5.89,-5.81,0,*6A
1514239492.88,5946,8.5,73656.8,-4.83,-5.89,-5.89,0,*61
1514239494.12,5947,8.5,73654.0,-4.83,-5.89,-5.89,0,*60
1514239495.37,5948,8.5,73656.0,-4.83,-5.93,-5.89,0,*64
1514239496.61,5949,8.5,73654.5,-4.83,-5.89,-5.89,0,*6E
1514239497.86,5950,8.5,73652.3,-4.83,-5.89,-5.89,0,*66
1514239499.13,5951,8.5,73654.5,-4.81,-5.89,-5.85,0,*69
1514239500.37,5952,8.5,73666.3,-4.79,-5.85,-5.85,0,*61
1514239501.62,5953,8.5,73666.0,-4.83,-5.93,-5.89,0,*6E
1514239502.87,5954,8.5,73656.8,-4.83,-5.93,-5.89,0,*69
1514239504.09,5955,8.5,73660.0,-4.83,-6.01,-5.81,0,*68
1514239505.33,5956,8.5,73662.0,-4.83,-5.93,-5.89,0,*6B
1514239506.58,5957,8.5,73666.3,-4.83,-5.93,-5.89,0,*6A
1514239507.83,5958,8.5,73664.0,-4.83,-5.89,-5.89,0,*6E
1514239509.07,5959,8.5,73662.8,-4.83,-5.93,-5.93,0,*6F
1514239510.32,5960,8.5,73668.0,-4.83,-5.93,-5.89,0,*6E
1514239511.56,5961,8.5,73668.0,-4.83,-5.93,-5.93,0,*64
1514239512.81,5962,8.5,73668.3,-4.83,-5.93,-5.93,0,*67
1514239514.06,5963,8.5,73670.8,-4.83,-5.93,-5.93,0,*66
1514239515.3,5964,8.5,73666.0,-4.83,-5.93,-5.89,0,*6A
1514239516.58,5965,8.5,73664.5,-4.85,-5.93,-5.93,0,*66
1514239517.79,5966,8.5,73666.3,-4.83,-5.93,-6.01,0,*6B
1514239519.01,5967,8.5,73668.3,-4.83,-6.01,-5.93,0,*6A
1514239520.25,5968,8.5,73668.3,-4.83,-5.93,-5.93,0,*6D
1514239521.52,5969,8.5,73662.5,-4.85,-5.89,-5.93,0,*61
1514239522.74,5970,8.5,73666.5,-4.83,-6.01,-5.89,0,*67
1514239523.93,5971,8.5,73666.5,-4.83,-6.01,-6.01,0,*65
1514239525.15,5972,8.5,73662.5,-4.83,-6.01,-5.93,0,*6E
1514239526.37,5973,8.5,73664.0,-4.83,-5.93,-6.01,0,*6F
1514239527.58,5974,8.5,73666.5,-4.83,-6.01,-5.93,0,*68
1514239528.83,5975,8.5,73670.0,-4.83,-5.93,-5.93,0,*61
1514239530.04,5976,8.5,73668.0,-4.83,-5.93,-6.01,0,*6A
1514239531.32,5977,8.5,73666.5,-4.85,-5.93,-5.93,0,*65
1514239532.53,5978,8.5,73662.3,-4.83,-6.01,-5.93,0,*64
1514239533.78,5979,8.5,73652.0,-4.83,-5.93,-5.93,0,*6D
1514239535.0,5980,8.5,73650.8,-4.83,-6.01,-5.93,0,*63
1514239536.21,5981,8.5,73650.0,-4.83,-6.01,-5.93,0,*62
1514239537.43,5982,8.5,73636.0,-4.83,-6.01,-5.93,0,*61
1514239538.67,5983,8.5,73644.3,-4.83,-5.93,-5.93,0,*68
1514239539.86,5984,8.5,73646.0,-4.83,-6.01,-6.01,0,*6F
1514239541.08,5985,8.5,73656.0,-4.83,-5.93,-6.01,0,*66
1514239542.3,5986,8.5,73654.0,-4.83,-6.01,-5.93,0,*65
1514239543.57,5987,8.5,73644.0,-4.85,-5.93,-5.93,0,*6A
1514239544.81,5988,8.5,73642.0,-4.85,-5.93,-6.01,0,*6D
1514239546.0,5989,8.5,73646.0,-4.83,-6.01,-6.01,0,*62
1514239547.19,5990,8.5,73650.0,-4.83,-6.01,-6.01,0,*6A
1514239548.4,5991,8.5,73654.8,-4.85,-6.01,-6.01,0,*6D
1514239549.65,5992,8.5,73650.5,-4.83,-5.93,-5.93,0,*68
1514239550.86,5993,8.5,73652.0,-4.83,-5.93,-6.01,0,*61
1514239552.05,5994,8.5,73648.5,-4.83,-6.01,-6.01,0,*6E
1514239553.24,5995,8.5,73656.0,-4.83,-6.01,-6.01,0,*6F
1514239554.46,5996,8.5,73652.0,-4.85,-6.01,-6.01,0,*6A
1514239555.7,5997,8.5,73648.5,-4.85,-6.01,-5.93,0,*63
1514239556.92,5998,8.5,73650.3,-4.83,-6.01,-5.93,0,*6A
1514239558.16,5999,8.5,73650.5,-4.85,-5.93,-6.01,0,*6D
1514239559.38,6000,8.5,73656.0,-4.83,-5.93,-6.01,0,*61
1514239560.62,6001,8.5,73658.3,-4.85,-6.01,-5.93,0,*66
1514239561.81,6002,8.5,73656.5,-4.83,-6.01,-6.01,0,*6B
1514239563.02,6003,8.5,73658.8,-4.83,-5.93,-6.01,0,*62
1514239564.3,6004,8.5,73654.8,-4.85,-5.93,-5.93,0,*6B
1514239565.51,6005,8.5,73652.0,-4.85,-6.05,-6.01,0,*6E
1514239566.72,6006,8.5,73650.0,-4.85,-6.05,-6.01,0,*6D
1514239567.93,6007,8.5,73646.5,-4.85,-6.01,-6.01,0,*68
1514239569.15,6008,8.5,73650.8,-4.85,-6.01,-6.01,0,*67
1514239570.36,6009,8.5,73642.3,-4.85,-6.01,-6.01,0,*66
1514239571.58,6010,8.5,73644.8,-4.83,-6.01,-5.93,0,*60
1514239572.79,6011,8.5,73650.0,-4.85,-6.05,-6.01,0,*6B
1514239574.03,6012,8.5,73652.3,-4.85,-5.93,-6.01,0,*64
1514239575.28,6013,8.5,73654.5,-4.85,-6.01,-5.93,0,*65
1514239576.49,6014,8.5,73652.3,-4.85,-6.01,-6.01,0,*6A
1514239577.68,6015,8.5,73654.0,-4.87,-6.05,-6.05,0,*69
1514239578.89,6016,8.5,73644.3,-4.85,-6.05,-6.01,0,*6C
1514239580.07,6017,8.5,73634.8,-4.87,-5.97,-6.05,0,*63
1514239581.26,6018,8.5,73632.3,-4.87,-6.05,-6.05,0,*64
1514239582.47,6019,8.5,73644.8,-4.85,-6.05,-6.01,0,*63
1514239583.68,6020,8.5,73646.5,-4.85,-6.01,-6.05,0,*69
1514239584.9,6021,8.5,73640.8,-4.85,-6.01,-6.01,0,*6C
1514239586.11,6022,8.5,73650.8,-4.85,-6.01,-6.01,0,*6F
1514239587.33,6023,8.5,73656.3,-4.85,-6.01,-6.01,0,*6E
1514239588.54,6024,8.5,73658.5,-4.85,-6.01,-6.01,0,*69
1514239589.76,6025,8.5,73660.3,-4.85,-6.01,-6.01,0,*68
1514239591.0,6026,8.5,73660.8,-4.85,-6.05,-5.93,0,*67
1514239592.21,6027,8.5,73658.3,-4.85,-6.05,-6.01,0,*6E
1514239593.42,6028,8.5,73644.8,-4.85,-6.01,-6.05,0,*61
1514239594.63,6029,8.5,73648.0,-4.85,-6.01,-6.05,0,*60
1514239595.85,6030,8.5,73652.8,-4.85,-6.01,-6.05,0,*68
1514239597.09,6031,8.5,73652.8,-4.85,-5.93,-6.05,0,*61
1514239598.3,6032,8.5,73656.0,-4.85,-6.05,-6.05,0,*6E
1514239599.51,6033,8.5,73650.3,-4.85,-6.01,-6.05,0,*6B
1514239600.7,6034,8.5,73658.3,-4.87,-6.05,-6.09,0,*66
1514239601.88,6035,8.5,73654.3,-4.87,-6.05,-6.05,0,*6B
1514239603.07,6036,8.5,73660.0,-4.87,-5.97,-6.05,0,*60
1514239604.25,6037,8.5,73652.0,-4.87,-6.05,-5.97,0,*61
1514239605.44,6038,8.5,73654.3,-4.87,-5.97,-6.05,0,*6E
1514239606.63,6039,8.5,73648.0,-4.87,-6.09,-6.05,0,*6B
1514239607.84,6040,8.5,73650.8,-4.87,-6.19,-5.97,0,*6C
1514239609.05,6041,8.5,73650.0,-4.89,-6.05,-6.05,0,*66
1514239610.24,6042,8.5,73654.3,-4.87,-6.09,-6.09,0,*6B
1514239611.46,6043,8.5,73644.3,-4.89,-5.97,-6.09,0,*60
1514239612.64,6044,8.5,73656.5,-4.87,-6.05,-6.09,0,*61
1514239613.82,6045,8.5,73650.8,-4.87,-6.05,-6.05,0,*6C
1514239615.04,6046,8.5,73646.0,-4.89,-6.09,-6.05,0,*6D
1514239616.23,6047,8.5,73654.8,-4.87,-6.09,-6.09,0,*6E
1514239617.41,6048,8.5,73656.8,-4.87,-6.05,-6.05,0,*61
1514239618.6,6049,8.5,73652.8,-4.87,-6.05,-6.05,0,*60
1514239619.81,6050,8.5,73654.0,-4.89,-6.09,-6.05,0,*6A
1514239621.03,6051,8.5,73654.8,-4.89,-6.05,-6.09,0,*6B
1514239622.24,6052,8.5,73652.8,-4.87,-6.19,-6.05,0,*67
1514239623.46,6053,8.5,73654.5,-4.89,-6.09,-6.05,0,*69
1514239624.67,6054,8.5,73658.3,-4.89,-6.05,-6.05,0,*62
1514239625.85,6055,8.5,73652.8,-4.87,-6.05,-6.09,0,*61
1514239627.07,6056,8.5,73646.5,-4.89,-6.09,-6.09,0,*60
1514239628.28,6057,8.5,73648.0,-4.89,-6.09,-6.09,0,*61
1514239629.47,6058,8.5,73646.3,-4.87,-6.05,-6.05,0,*60
1514239630.65,6059,8.5,73648.0,-4.87,-6.05,-6.05,0,*61
1514239631.86,6060,8.5,73658.5,-4.89,-6.05,-6.05,0,*65
1514239633.04,6061,8.5,73652.8,-4.87,-6.05,-6.05,0,*6A
1514239634.26,6062,8.5,73652.3,-4.89,-6.05,-6.05,0,*67
1514239635.47,6063,8.5,73646.3,-4.89,-5.97,-6.05,0,*6E
1514239636.68,6064,8.5,73650.3,-4.89,-5.97,-6.05,0,*69
1514239637.87,6065,8.5,73650.0,-4.87,-5.97,-5.97,0,*6E
1514239639.08,6066,8.5,73658.3,-4.89,-6.05,-5.97,0,*6B
1514239640.29,6067,8.5,73652.3,-4.89,-6.05,-6.05,0,*62
1514239641.51,6068,8.5,73648.8,-4.89,-6.09,-6.05,0,*61
1514239642.72,6069,8.5,73636.8,-4.89,-6.05,-6.05,0,*6C
1514239643.91,6070,8.5,73650.0,-4.87,-5.97,-6.05,0,*62
1514239645.1,6071,8.5,73648.3,-4.87,-6.09,-6.05,0,*67
1514239646.31,6072,8.5,73656.5,-4.89,-5.97,-6.05,0,*6E
1514239647.52,6073,8.5,73658.8,-4.89,-6.05,-6.05,0,*67
1514239648.73,6074,8.5,73654.8,-4.89,-6.05,-6.05,0,*60
1514239649.94,6075,8.5,73648.0,-4.89,-6.05,-6.05,0,*61
1514239651.15,6076,8.5,73650.8,-4.89,-6.05,-6.05,0,*62
1514239652.36,6077,8.5,73652.3,-4.89,-5.97,-6.05,0,*6B
1514239653.58,6078,8.5,73654.5,-4.89,-6.05,-6.05,0,*6C
1514239654.79,6079,8.5,73650.8,-4.89,-6.09,-6.05,0,*61
1514239656.0,6080,8.5,73644.5,-4.89,-6.05,-5.97,0,*63
1514239657.22,6081,8.5,73644.8,-4.89,-6.09,-6.05,0,*66
1514239658.41,6082,8.5,73642.8,-4.87,-5.97,-6.05,0,*6F
1514239659.62,6083,8.5,73646.5,-4.89,-6.05,-6.05,0,*68
1514239660.83,6084,8.5,73642.5,-4.89,-6.05,-6.05,0,*6F
1514239662.04,6085,8.5,73642.5,-4.89,-6.05,-6.05,0,*6E
1514239663.25,6086,8.5,73644.0,-4.89,-6.05,-6.05,0,*6D
1514239664.46,6087,8.5,73636.8,-4.89,-6.05,-6.05,0,*6C
1514239665.67,6088,8.5,73638.8,-4.89,-6.05,-6.05,0,*63
1514239666.88,6089,8.5,73652.0,-4.89,-6.05,-6.05,0,*62
1514239668.09,6090,8.5,73642.5,-4.89,-6.05,-5.97,0,*62
1514239669.3,6091,8.5,73644.3,-4.89,-6.05,-6.05,0,*6B
1514239670.52,6092,8.5,73648.0,-4.89,-5.97,-5.97,0,*68
1514239671.71,6093,8.5,73636.8,-4.91,-6.09,-6.09,0,*60
1514239672.92,6094,8.5,73638.3,-4.89,-6.05,-6.05,0,*6E
1514239674.13,6095,8.5,73634.5,-4.89,-6.05,-6.05,0,*6F
1514239675.31,6096,8.5,73634.8,-4.87,-5.97,-6.05,0,*6A
1514239676.53,6097,8.5,73636.5,-4.89,-5.97,-6.05,0,*65
1514239677.74,6098,8.5,73642.8,-4.89,-6.05,-5.97,0,*6A
1514239678.93,6099,8.5,73650.8,-4.87,-5.97,-6.05,0,*65
1514239680.14,6100,8.5,73658.0,-4.89,-6.05,-5.97,0,*6A
1514239681.35,6101,8.5,73654.8,-4.89,-6.05,-6.05,0,*63
1514239682.56,6102,8.5,73648.3,-4.89,-6.05,-6.05,0,*60
1514239683.77,6103,8.5,73648.8,-4.89,-5.97,-6.05,0,*69
1514239684.96,6104,8.5,73644.3,-4.87,-6.05,-6.05,0,*68
1514239686.17,6105,8.5,73636.0,-4.89,-5.97,-6.05,0,*6F
1514239687.36,6106,8.5,73634.3,-4.87,-5.97,-6.05,0,*62
1514239688.57,6107,8.5,73636.0,-4.89,-5.97,-6.05,0,*6D
1514239689.79,6108,8.5,73628.5,-4.89,-5.97,-5.97,0,*6A
1514239690.97,6109,8.5,73636.0,-4.91,-6.01,-6.01,0,*62
1514239692.19,6110,8.5,73630.8,-4.89,-5.97,-5.97,0,*63
1514239693.4,6111,8.5,73636.8,-4.89,-5.97,-5.97,0,*62
1514239694.62,6112,8.5,73646.0,-4.89,-5.97,-5.97,0,*61
1514239695.8,6113,8.5,73640.3,-4.87,-5.97,-6.05,0,*66
1514239697.02,6114,8.5,73642.5,-4.89,-5.97,-5.97,0,*67
1514239698.21,6115,8.5,73640.5,-4.91,-6.09,-6.01,0,*67
1514239699.4,6116,8.5,73634.3,-4.91,-6.09,-6.09,0,*6C
1514239700.59,6117,8.5,73632.8,-4.91,-6.01,-6.01,0,*6D
1514239701.78,6118,8.5,73634.8,-4.91,-6.01,-6.01,0,*62
1514239702.96,6119,8.5,73642.5,-4.91,-5.97,-6.09,0,*67
1514239704.15,6120,8.5,73648.3,-4.91,-6.01,-6.09,0,*61
1514239705.37,6121,8.5,73648.0,-4.89,-5.97,-5.97,0,*61
1514239706.58,6122,8.5,73636.3,-4.89,-5.97,-5.97,0,*62
1514239707.82,6123,8.5,73638.8,-4.89,-5.93,-5.97,0,*67
1514239709.03,6124,8.5,73632.5,-4.89,-6.05,-5.97,0,*6C
1514239710.25,6125,8.5,73632.0,-4.89,-5.97,-5.97,0,*65
1514239711.49,6126,8.5,73638.8,-4.89,-6.05,-5.93,0,*6A
1514239712.73,6127,8.5,73640.5,-4.89,-5.97,-5.93,0,*63
1514239713.98,6128,8.5,73644.0,-4.89,-5.97,-5.85,0,*6B
1514239715.19,6129,8.5,73634.8,-4.89,-5.97,-5.97,0,*69
1514239716.41,6130,8.5,73644.5,-4.89,-5.97,-6.05,0,*69
1514239717.65,6131,8.5,73644.3,-4.89,-5.97,-5.93,0,*64
1514239718.9,6132,8.5,73640.8,-4.89,-5.97,-5.93,0,*67
1514239720.14,6133,8.5,73632.0,-4.89,-5.97,-5.93,0,*66
1514239721.35,6134,8.5,73636.5,-4.89,-6.05,-5.97,0,*6D
1514239722.54,6135,8.5,73636.5,-4.91,-6.01,-6.01,0,*6D
1514239723.73,6136,8.5,73638.3,-4.91,-5.97,-5.97,0,*6E
1514239725.0,6137,8.5,73638.5,-4.89,-5.93,-5.93,0,*66
1514239726.27,6138,8.5,73630.3,-4.89,-5.93,-5.93,0,*69
1514239727.49,6139,8.5,73636.8,-4.89,-5.97,-5.97,0,*68
1514239728.7,6140,8.5,73640.8,-4.87,-5.93,-5.97,0,*6C
1514239729.97,6141,8.5,73640.3,-4.89,-5.93,-5.93,0,*67
1514239731.25,6142,8.5,73640.0,-4.89,-5.85,-5.93,0,*63
1514239732.52,6143,8.5,73642.5,-4.89,-5.93,-5.93,0,*65
1514239733.79,6144,8.5,73646.3,-4.89,-5.85,-5.93,0,*65
1514239735.07,6145,8.5,73638.5,-4.89,-5.93,-5.93,0,*63
1514239736.31,6146,8.5,73644.0,-4.87,-5.93,-5.93,0,*6E
1514239737.58,6147,8.5,73652.3,-4.89,-5.93,-5.93,0,*61